PBO Station Position Time Series. Reference Frame : NAM14
Format Version,1.1.0
4-character ID,PRCO
Station name,Purcell
Begin Date, 1996-01-18
End Date, 2014-06-12
Release Date, 2021-02-19
Reference position, 34.9798656601 North Latitude, -97.5192501234 East Longitude, 305.12006 meters elevation,
Date, North (mm), East (mm), Vertical (mm), North Std. Deviation (mm), East Std. Deviation (mm),              Vertical Std. Deviation (mm), Quality,
1996-01-18,0.00, 0.00, 1.51, 6.37, 6.21, 26.37, repro,
1996-01-19,-4.19, -3.19, 0.00, 2.37, 2.15, 10.41, repro,
1996-01-20,-5.59, -1.02, 3.18, 2.47, 2.30, 10.40, repro,
1996-01-21,-6.48, -1.97, 8.33, 2.60, 2.33, 10.68, repro,
1996-01-22,-5.84, 0.43, 7.04, 2.37, 2.21, 10.56, repro,
1996-01-23,-3.75, -0.06, 12.84, 2.47, 2.24, 10.63, repro,
1996-01-24,-5.72, -1.00, 3.38, 2.57, 2.45, 11.11, repro,
1996-01-25,-5.76, 1.00, 18.50, 2.56, 2.29, 10.57, repro,
1996-01-26,-5.16, -2.78, 10.07, 2.33, 2.11, 9.79, repro,
1996-01-27,-5.03, -2.61, -0.93, 2.17, 1.96, 8.94, repro,
1996-01-28,-8.84, 1.36, 1.15, 2.37, 2.15, 10.07, repro,
1996-01-29,-4.06, -2.30, 13.85, 2.63, 2.49, 10.73, repro,
1996-01-30,-3.49, -1.18, 1.04, 2.37, 2.22, 10.22, repro,
1996-01-31,-3.64, -2.98, -1.85, 2.49, 2.28, 10.47, repro,
1996-02-01,-2.50, -3.09, 3.96, 2.45, 2.23, 10.31, repro,
1996-02-02,-2.54, -1.81, 3.54, 2.31, 2.17, 9.36, repro,
1996-02-03,-1.39, -3.06, -6.56, 2.51, 2.26, 10.34, repro,
1996-02-04,-2.79, -3.09, -10.13, 2.28, 2.03, 9.41, repro,
1996-02-05,-2.43, -1.62, 2.68, 2.35, 2.07, 9.34, repro,
1996-02-06,-4.96, -0.93, 3.71, 2.47, 2.26, 10.15, repro,
1996-02-07,-6.71, -0.17, 8.81, 2.22, 2.00, 9.26, repro,
1996-02-08,-3.61, -1.33, 12.40, 2.32, 2.08, 9.42, repro,
1996-02-09,-5.43, 0.52, 7.31, 2.38, 2.13, 9.59, repro,
1996-02-10,-5.66, 0.21, 12.48, 2.29, 2.01, 9.23, repro,
1996-02-11,-4.24, -1.73, 4.92, 2.31, 2.03, 9.36, repro,
1996-02-12,-4.10, -1.15, -6.07, 2.32, 2.04, 9.50, repro,
1996-02-13,-4.99, -0.69, 1.23, 2.24, 1.98, 9.40, repro,
1996-02-14,-4.68, -0.04, 13.52, 2.25, 1.98, 9.37, repro,
1996-02-15,-5.39, 0.06, 10.14, 2.42, 2.10, 10.01, repro,
1996-02-16,-4.09, -1.09, -3.33, 2.35, 2.03, 9.61, repro,
1996-02-17,-5.20, -2.02, 5.03, 2.52, 2.07, 10.44, repro,
1996-02-18,-5.25, -0.88, 15.96, 2.42, 2.09, 9.67, repro,
1996-02-19,-6.04, -0.62, 19.72, 2.42, 2.09, 9.96, repro,
1996-02-20,-5.44, 0.26, 5.11, 2.44, 2.13, 10.10, repro,
1996-02-21,-7.36, 1.53, 5.58, 2.50, 2.21, 10.26, repro,
1996-02-22,-7.29, -0.31, 10.30, 2.19, 1.94, 9.15, repro,
1996-02-23,-6.16, 1.08, 8.76, 2.25, 2.05, 9.23, repro,
1996-02-24,-5.39, -1.13, 9.65, 2.25, 1.99, 9.29, repro,
1996-02-25,-7.76, -1.39, 8.18, 2.25, 2.00, 9.54, repro,
1996-02-26,-8.13, 0.01, 9.05, 2.23, 1.98, 8.96, repro,
1996-02-27,-5.82, -2.07, 4.79, 2.30, 2.01, 9.24, repro,
1996-02-28,-4.65, -4.30, 2.06, 2.39, 2.04, 9.69, repro,
1996-02-29,-2.90, -2.92, -0.05, 2.33, 2.07, 9.41, repro,
1996-03-01,-4.67, -2.56, 5.42, 2.23, 1.98, 8.96, repro,
1996-03-02,-6.29, -3.22, 10.92, 2.54, 2.39, 10.41, repro,
1996-03-03,-6.37, -1.33, 8.18, 2.20, 1.98, 9.05, repro,
1996-03-04,-6.81, -3.33, 7.56, 2.26, 2.03, 9.04, repro,
1996-03-05,-7.33, -2.27, -1.56, 2.39, 2.13, 10.07, repro,
1996-03-06,-4.77, -2.61, 4.51, 2.31, 2.13, 9.36, repro,
1996-03-07,-3.96, -5.13, -1.78, 2.46, 2.17, 9.78, repro,
1996-03-08,-3.81, -3.92, -8.30, 2.31, 2.10, 9.14, repro,
1996-03-09,-2.74, -2.80, -4.47, 2.50, 2.34, 10.31, repro,
1996-03-10,-4.42, -2.19, -2.93, 2.36, 2.22, 9.77, repro,
1996-03-11,-5.48, -3.04, -7.02, 2.43, 2.17, 9.96, repro,
1996-03-12,-6.55, -2.99, 7.90, 2.32, 2.08, 9.28, repro,
1996-03-13,-5.46, -1.56, 12.51, 2.31, 2.13, 9.26, repro,
1996-03-14,-6.62, -1.23, -16.28, 2.44, 2.21, 9.91, repro,
1996-03-15,-4.44, -1.59, 8.10, 2.31, 2.05, 9.48, repro,
1996-03-16,-5.69, -3.95, 13.35, 2.31, 2.12, 9.34, repro,
1996-03-17,-5.69, -2.66, 6.20, 2.20, 1.97, 9.00, repro,
1996-03-18,-4.42, -1.52, 8.52, 2.19, 1.97, 9.24, repro,
1996-03-19,-3.10, -3.57, 6.55, 2.25, 2.07, 9.23, repro,
1996-03-20,-4.09, -3.46, -5.57, 2.29, 2.13, 9.53, repro,
1996-03-21,-4.27, -2.79, 7.58, 2.23, 2.03, 9.01, repro,
1996-03-22,-5.17, -1.57, 0.62, 2.89, 2.66, 12.12, repro,
1996-03-23,-7.53, -0.25, 8.07, 2.28, 2.07, 9.22, repro,
1996-03-24,-6.54, -0.05, -2.54, 2.52, 2.27, 9.81, repro,
1996-03-25,-3.73, -3.00, 8.28, 2.16, 1.93, 8.86, repro,
1996-03-26,-3.97, -3.36, 1.34, 2.50, 2.33, 10.36, repro,
1996-03-27,-3.68, -2.98, 2.97, 2.20, 1.93, 8.82, repro,
1996-03-28,-4.83, -1.36, 3.05, 2.18, 1.96, 8.92, repro,
1996-03-29,-6.12, -0.79, 8.87, 2.17, 1.94, 8.95, repro,
1996-03-30,-5.04, -0.95, 8.65, 2.17, 1.93, 8.78, repro,
1996-03-31,-3.67, -2.48, 4.04, 2.19, 1.96, 8.89, repro,
1996-04-01,-3.48, -2.60, 6.62, 2.21, 1.95, 8.98, repro,
1996-04-02,-5.08, -0.25, 10.14, 2.19, 1.95, 8.92, repro,
1996-04-03,-5.27, -0.66, 16.14, 2.19, 1.96, 8.90, repro,
1996-04-04,-4.19, -0.43, 13.25, 2.48, 2.09, 10.05, repro,
1996-04-05,-4.02, -1.68, 3.42, 2.36, 1.99, 9.57, repro,
1996-04-06,-4.56, -1.65, 8.89, 2.20, 1.94, 8.78, repro,
1996-04-07,-6.07, 0.50, 8.04, 2.24, 1.97, 9.04, repro,
1996-04-08,-5.60, 0.26, 12.55, 2.23, 1.96, 8.84, repro,
1996-04-09,-5.18, 0.93, 18.49, 2.20, 2.00, 9.04, repro,
1996-04-10,-5.53, -1.54, 14.97, 2.19, 1.93, 8.70, repro,
1996-04-11,-6.16, -0.44, 11.75, 2.18, 1.88, 8.60, repro,
1996-04-12,-4.96, -2.02, 20.10, 2.34, 2.04, 9.14, repro,
1996-04-13,-5.21, -1.45, 10.88, 2.25, 1.96, 8.94, repro,
1996-04-14,-5.27, -2.47, 13.13, 2.24, 1.98, 9.01, repro,
1996-04-15,-4.66, -2.49, 6.16, 2.21, 1.97, 8.89, repro,
1996-04-16,-6.17, -1.26, 10.71, 2.21, 1.92, 8.99, repro,
1996-04-17,-6.44, 0.06, 16.82, 2.16, 1.91, 8.76, repro,
1996-04-18,-6.81, 0.74, 18.15, 2.36, 2.04, 9.74, repro,
1996-04-19,-6.29, -0.30, 13.03, 2.33, 2.04, 9.68, repro,
1996-04-20,-4.62, -0.04, 11.46, 2.35, 2.05, 9.57, repro,
1996-04-21,-2.05, -2.62, 20.45, 2.49, 2.18, 10.30, repro,
1996-04-22,-2.83, 2.54, 17.19, 2.78, 2.40, 10.97, repro,
1996-04-23,-4.53, -1.62, 2.98, 2.25, 1.97, 9.28, repro,
1996-04-24,-5.88, -0.95, 5.55, 2.26, 2.03, 9.16, repro,
1996-04-25,-7.08, 0.09, 11.44, 2.24, 2.02, 9.17, repro,
1996-04-26,-5.46, -0.55, 9.24, 2.30, 2.01, 9.73, repro,
1996-04-27,-4.80, 0.75, 14.52, 2.21, 2.01, 8.98, repro,
1996-04-28,-5.34, 1.25, 21.58, 2.29, 2.01, 9.33, repro,
1996-04-29,-3.72, 0.34, 7.32, 2.38, 2.15, 9.97, repro,
1996-04-30,-6.24, -1.32, 6.86, 2.29, 2.06, 9.66, repro,
1996-05-01,-5.65, 0.78, 12.41, 2.36, 2.12, 9.90, repro,
1996-05-02,-5.51, 0.76, 6.47, 2.30, 2.05, 9.43, repro,
1996-05-03,-7.69, 2.79, 10.65, 2.27, 1.93, 9.04, repro,
1996-05-04,-5.51, 2.86, 22.43, 2.27, 2.00, 9.17, repro,
1996-05-05,-7.49, 1.48, 4.76, 2.24, 2.00, 9.01, repro,
1996-05-06,-4.92, 1.77, 10.37, 2.20, 1.97, 8.89, repro,
1996-05-07,-6.60, 4.09, 6.38, 2.26, 2.02, 9.06, repro,
1996-05-08,-5.89, 1.89, 8.65, 2.38, 2.10, 9.40, repro,
1996-05-09,-4.99, 1.39, 10.66, 2.32, 1.99, 9.03, repro,
1996-05-10,-5.09, -0.25, 13.07, 2.33, 2.06, 9.46, repro,
1996-05-11,-4.99, -0.22, 7.63, 2.58, 2.56, 11.08, repro,
1996-05-12,-4.67, 2.75, 7.72, 2.33, 2.07, 9.76, repro,
1996-05-13,-4.00, 3.63, 4.07, 2.89, 2.53, 11.91, repro,
1996-05-14,-4.82, 2.93, 9.16, 2.21, 1.96, 8.88, repro,
1996-05-15,-8.61, 0.76, 19.79, 2.26, 2.00, 9.10, repro,
1996-05-16,-6.84, 3.52, 20.08, 2.34, 2.07, 9.52, repro,
1996-05-17,-6.38, 3.43, 18.36, 2.29, 2.04, 9.28, repro,
1996-05-18,-5.08, 3.31, 24.97, 2.29, 2.05, 9.31, repro,
1996-05-19,-7.15, 4.37, 20.46, 2.24, 1.99, 9.01, repro,
1996-05-20,-5.80, 2.13, 16.59, 2.27, 2.00, 9.21, repro,
1996-05-21,-4.78, -0.18, 11.92, 2.27, 2.01, 9.21, repro,
1996-05-22,-4.05, -0.07, 9.35, 2.52, 2.43, 10.45, repro,
1996-05-23,-5.55, 2.28, 6.93, 2.44, 2.27, 10.18, repro,
1996-05-24,-7.63, 0.01, 20.50, 2.33, 2.07, 9.54, repro,
1996-05-25,-7.94, 1.53, 10.91, 2.31, 2.05, 9.62, repro,
1996-05-26,-3.73, 2.86, 6.71, 2.24, 2.01, 9.14, repro,
1996-05-27,-3.20, 3.10, 9.77, 2.75, 2.73, 11.11, repro,
1996-05-28,-5.19, 0.77, 6.93, 2.18, 1.94, 8.76, repro,
1996-05-29,-5.16, 1.86, 17.54, 2.27, 1.97, 9.33, repro,
1996-05-30,-5.46, 1.10, 8.17, 2.14, 1.89, 8.53, repro,
1996-05-31,-9.31, 2.60, 16.41, 2.21, 1.92, 8.81, repro,
1996-06-01,-6.06, -1.80, 9.72, 4.32, 3.50, 17.29, repro,
1996-06-05,-4.76, 1.73, 9.58, 2.21, 1.93, 9.09, repro,
1996-06-06,-7.49, 0.76, 12.56, 2.46, 2.13, 9.84, repro,
1996-06-07,-1.85, 1.12, -3.59, 2.68, 2.31, 10.25, repro,
1996-06-11,-13.82, 5.47, -12.05, 9.22, 7.66, 32.03, repro,
1996-06-12,-7.03, 2.01, 31.59, 2.44, 2.21, 9.92, repro,
1996-06-13,-6.51, 2.67, 5.50, 2.30, 2.04, 9.08, repro,
1996-06-14,-8.59, 1.80, -2.47, 2.46, 2.12, 9.67, repro,
1996-06-15,-7.68, 1.51, 17.38, 2.30, 1.98, 8.93, repro,
1996-06-16,-7.54, 4.58, 4.65, 2.68, 2.28, 10.38, repro,
1996-06-17,-7.23, 2.39, 18.37, 2.34, 2.14, 9.28, repro,
1996-06-18,-8.40, -0.42, 10.26, 2.44, 2.17, 9.75, repro,
1996-06-19,-8.55, 2.47, 18.17, 2.27, 2.04, 8.88, repro,
1996-06-20,-7.69, 3.33, 24.87, 2.44, 2.12, 9.59, repro,
1996-06-21,-9.76, 3.25, 10.50, 2.48, 2.11, 9.58, repro,
1996-06-22,-7.97, 3.78, 8.47, 2.38, 2.12, 9.33, repro,
1996-06-23,-6.23, 3.48, 10.07, 2.23, 2.00, 8.95, repro,
1996-06-24,-6.12, 2.33, 16.88, 2.42, 2.09, 9.41, repro,
1996-06-25,-8.79, 2.95, 22.16, 2.44, 2.11, 9.70, repro,
1996-06-26,-7.39, 2.03, 12.41, 2.45, 2.11, 9.67, repro,
1996-06-27,-6.41, 3.78, 15.81, 2.48, 2.12, 9.67, repro,
1996-06-28,-7.96, 3.06, 13.13, 2.45, 2.14, 9.68, repro,
1996-06-29,-7.47, 4.51, 12.86, 2.40, 2.06, 9.48, repro,
1996-06-30,-8.27, 6.62, 16.34, 2.47, 2.15, 9.67, repro,
1996-07-01,-7.83, 3.60, 7.26, 2.43, 2.10, 9.50, repro,
1996-07-02,-9.30, 2.73, 18.80, 2.52, 2.13, 10.01, repro,
1996-07-04,-8.69, 4.93, 17.96, 2.45, 2.10, 9.57, repro,
1996-07-05,-8.60, 4.62, 14.09, 2.40, 2.09, 9.37, repro,
1996-07-06,-6.49, 4.63, 15.50, 2.42, 2.10, 9.38, repro,
1996-07-07,-8.11, 2.59, 21.74, 2.11, 1.88, 8.51, repro,
1996-07-08,-4.47, 2.44, 32.01, 2.20, 1.99, 8.85, repro,
1996-07-09,-7.50, -0.10, 21.85, 2.26, 2.05, 9.19, repro,
1996-07-10,-4.95, 0.03, 13.54, 2.22, 1.94, 9.10, repro,
1996-07-11,-5.78, 2.89, 4.06, 2.22, 2.02, 9.00, repro,
1996-07-12,-7.41, 2.55, 7.21, 2.13, 1.89, 8.60, repro,
1996-07-13,-7.65, 0.63, 1.89, 2.13, 1.90, 8.57, repro,
1996-07-14,-7.69, 2.03, 19.63, 2.39, 2.13, 9.63, repro,
1996-07-15,-6.00, 2.02, 10.06, 2.20, 1.95, 8.87, repro,
1996-07-16,-6.95, 2.18, 6.45, 2.15, 1.92, 8.63, repro,
1996-07-17,-8.33, 1.38, 12.19, 2.21, 1.94, 8.96, repro,
1996-07-18,-7.68, 1.57, 12.28, 2.12, 1.87, 8.46, repro,
1996-07-19,-7.72, 1.19, 10.69, 2.11, 1.88, 8.48, repro,
1996-07-20,-5.96, 1.24, 21.52, 2.15, 1.91, 8.61, repro,
1996-07-21,-8.22, 2.72, 18.42, 2.12, 1.91, 8.57, repro,
1996-07-22,-8.47, 3.78, 22.49, 2.09, 1.89, 8.51, repro,
1996-07-23,-7.08, 1.54, 14.71, 2.23, 2.06, 9.11, repro,
1996-07-24,-6.11, 2.28, 14.82, 2.29, 2.05, 9.03, repro,
1996-07-25,-5.95, 0.31, 7.77, 2.14, 1.90, 8.57, repro,
1996-07-26,-7.35, 2.54, 13.79, 2.84, 2.53, 11.57, repro,
1996-07-30,-6.47, 0.78, 6.98, 4.01, 3.59, 16.46, repro,
1996-07-31,-7.18, 0.95, 10.89, 2.23, 1.95, 8.98, repro,
1996-08-01,-5.19, 3.65, 5.94, 2.35, 2.08, 9.66, repro,
1996-08-02,-7.86, 1.28, 19.83, 2.21, 1.98, 8.58, repro,
1996-08-03,-10.10, 4.82, 29.19, 2.45, 2.20, 9.99, repro,
1996-08-04,-6.99, 2.85, 14.56, 2.21, 1.94, 8.63, repro,
1996-08-05,-8.01, 3.58, 8.90, 2.21, 1.98, 8.80, repro,
1996-08-06,-9.20, 4.31, 13.50, 2.34, 2.07, 9.17, repro,
1996-08-07,-6.48, 1.83, 8.97, 2.23, 1.96, 8.82, repro,
1996-08-08,-8.75, 0.73, 13.57, 2.23, 1.95, 8.82, repro,
1996-08-09,-3.95, 0.01, 9.25, 2.34, 2.03, 9.17, repro,
1996-08-10,-8.17, -0.98, 0.02, 2.51, 2.29, 10.05, repro,
1996-08-11,-3.80, 2.14, 2.70, 2.30, 2.14, 9.18, repro,
1996-08-12,-6.93, 0.97, 6.39, 2.29, 2.12, 9.26, repro,
1996-08-13,-7.31, 0.52, 10.84, 2.35, 2.08, 9.05, repro,
1996-08-14,-8.18, 3.41, 1.79, 2.35, 2.06, 8.93, repro,
1996-08-15,-7.04, 1.00, 11.38, 2.22, 2.07, 8.75, repro,
1996-08-16,-5.18, 1.11, 9.72, 2.32, 2.16, 9.06, repro,
1996-08-17,-7.37, 2.39, 16.99, 2.39, 2.19, 9.34, repro,
1996-08-19,-6.12, 2.62, 6.01, 2.57, 2.31, 9.52, repro,
1996-08-20,-8.09, 3.10, 11.42, 2.59, 2.43, 9.69, repro,
1996-08-21,-7.09, 4.34, 3.36, 2.57, 2.36, 10.05, repro,
1996-08-22,-5.20, 2.54, 12.94, 2.39, 2.21, 9.48, repro,
1996-08-23,-5.16, 0.77, 6.48, 2.31, 2.11, 8.97, repro,
1996-08-24,-7.21, 1.67, 1.45, 2.44, 2.20, 9.57, repro,
1996-08-25,-6.88, 1.87, 1.01, 2.30, 2.09, 8.97, repro,
1996-08-26,-6.98, 2.79, 4.11, 2.45, 2.21, 9.48, repro,
1996-08-27,-5.49, 3.45, 8.84, 2.44, 2.22, 9.48, repro,
1996-08-28,-5.93, 0.83, 4.59, 2.24, 2.13, 8.93, repro,
1996-08-29,-7.68, 2.18, 12.79, 2.41, 2.26, 9.82, repro,
1996-08-30,-6.80, 1.85, 14.81, 2.44, 2.14, 10.02, repro,
1996-08-31,-4.80, 1.12, 5.03, 2.18, 1.95, 8.68, repro,
1996-09-01,-7.98, 4.54, 7.70, 2.32, 2.20, 9.10, repro,
1996-09-02,-5.35, 3.83, 4.43, 2.64, 2.31, 10.48, repro,
1996-09-03,-7.54, 3.32, 13.91, 2.26, 2.04, 8.93, repro,
1996-09-04,-6.36, 5.29, 14.49, 2.54, 2.28, 10.03, repro,
1996-09-05,-7.67, 1.14, 5.11, 2.28, 2.13, 9.22, repro,
1996-09-06,-7.53, 3.24, 16.19, 2.64, 2.34, 10.06, repro,
1996-09-07,-7.18, 3.08, 16.70, 2.36, 2.17, 9.30, repro,
1996-09-08,-7.14, 1.54, -0.22, 2.31, 2.08, 8.97, repro,
1996-09-09,-5.78, 0.78, 12.88, 2.44, 2.15, 9.59, repro,
1996-09-10,-7.59, 1.78, 7.85, 2.66, 2.41, 10.52, repro,
1996-09-11,-7.11, 2.34, 10.55, 2.67, 2.36, 10.62, repro,
1996-09-12,-6.27, 2.16, 12.40, 2.61, 2.37, 10.42, repro,
1996-09-13,-6.39, 2.55, 18.99, 2.40, 2.10, 9.58, repro,
1996-09-14,-5.66, -0.93, 17.20, 2.46, 2.18, 9.80, repro,
1996-09-15,-6.21, 1.76, 29.45, 2.30, 2.14, 9.19, repro,
1996-09-16,-6.59, 0.79, 17.09, 2.61, 2.48, 10.51, repro,
1996-09-17,-4.48, 1.06, 8.78, 2.33, 2.07, 9.51, repro,
1996-09-18,-6.81, 0.04, 22.83, 2.44, 2.20, 9.96, repro,
1996-09-19,-4.98, 1.51, 12.78, 2.63, 2.40, 10.44, repro,
1996-09-20,-3.23, 1.09, 9.29, 2.39, 2.16, 9.22, repro,
1996-09-21,-5.03, 3.31, 6.32, 2.49, 2.25, 9.65, repro,
1996-09-22,-3.72, 0.95, 16.78, 2.91, 2.66, 11.76, repro,
1996-09-23,-5.78, 1.78, 19.35, 2.37, 2.13, 9.62, repro,
1996-09-24,-3.76, 0.36, 2.27, 2.79, 2.44, 10.85, repro,
1996-09-25,-5.14, 0.83, 5.26, 2.32, 2.21, 9.46, repro,
1996-09-26,-3.12, 0.68, 11.59, 2.61, 2.24, 10.37, repro,
1996-09-27,-4.66, -0.27, 17.19, 2.23, 1.99, 9.07, repro,
1996-09-28,-4.05, -1.09, 5.43, 2.10, 1.89, 8.49, repro,
1996-09-29,-6.59, 1.24, 2.22, 2.12, 1.92, 8.64, repro,
1996-09-30,-6.18, 1.88, 7.28, 2.15, 1.90, 8.72, repro,
1996-10-01,-5.58, 1.79, 17.14, 2.22, 1.92, 8.96, repro,
1996-10-02,-5.92, 0.43, 7.29, 2.05, 1.81, 8.19, repro,
1996-10-03,-5.33, 0.53, 7.72, 2.08, 1.84, 8.44, repro,
1996-10-04,-6.10, 1.25, 2.43, 2.15, 1.89, 8.80, repro,
1996-10-05,-5.83, 1.75, 0.28, 2.18, 1.87, 8.80, repro,
1996-10-06,-6.64, 0.81, 2.32, 2.12, 1.85, 8.59, repro,
1996-10-07,-6.50, 0.82, 5.74, 2.06, 1.82, 8.26, repro,
1996-10-08,-5.53, -0.72, 15.48, 2.14, 1.89, 8.44, repro,
1996-10-09,-5.24, -1.05, 6.73, 2.20, 1.93, 8.65, repro,
1996-10-10,-6.14, -0.19, 6.24, 2.10, 1.83, 8.30, repro,
1996-10-11,-4.59, -0.78, 7.31, 2.06, 1.77, 8.25, repro,
1996-10-12,-6.29, 0.50, 8.64, 2.05, 1.80, 8.22, repro,
1996-10-13,-6.49, 0.23, 14.49, 2.11, 1.88, 8.41, repro,
1996-10-14,-5.66, 0.08, 15.71, 2.07, 1.83, 8.40, repro,
1996-10-15,-5.74, 0.96, 15.06, 2.17, 1.85, 8.67, repro,
1996-10-16,-7.00, 1.10, 12.53, 2.18, 1.84, 8.70, repro,
1996-10-17,-5.21, 0.99, 15.10, 2.11, 1.81, 8.57, repro,
1996-10-18,-5.43, -1.02, 9.96, 2.18, 1.86, 8.86, repro,
1996-10-19,-4.50, -0.44, 15.86, 2.11, 1.84, 8.54, repro,
1996-10-20,-5.50, 1.71, 16.77, 2.15, 1.89, 8.70, repro,
1996-10-21,-3.57, 0.79, 13.12, 2.28, 1.95, 8.97, repro,
1996-10-22,-5.97, -1.26, 11.85, 2.13, 1.84, 8.52, repro,
1996-10-23,-6.83, 0.40, 17.96, 2.17, 1.88, 8.80, repro,
1996-10-24,-6.43, -1.22, 17.94, 2.18, 1.86, 8.88, repro,
1996-10-25,-6.18, 2.04, 27.01, 2.14, 1.86, 8.56, repro,
1996-10-26,-6.31, 1.90, 18.88, 2.13, 1.83, 8.33, repro,
1996-10-27,-5.17, 0.51, 13.21, 2.20, 1.89, 8.89, repro,
1996-10-28,-5.85, 0.22, 5.61, 2.11, 1.81, 8.32, repro,
1996-10-29,-5.23, 1.10, 9.55, 2.14, 1.83, 8.44, repro,
1996-10-30,-5.03, -0.04, 4.38, 2.14, 1.85, 8.40, repro,
1996-10-31,-4.63, 1.49, 1.99, 2.24, 1.94, 8.77, repro,
1996-11-01,-3.37, 0.10, 13.82, 2.11, 1.82, 8.37, repro,
1996-11-02,-3.67, 0.11, 6.32, 2.43, 2.06, 9.59, repro,
1996-11-03,-4.00, 0.53, 6.17, 2.28, 1.95, 9.13, repro,
1996-11-04,-4.21, -0.68, 8.63, 2.24, 2.00, 9.27, repro,
1996-11-05,-4.96, 0.07, 19.00, 2.31, 1.96, 9.21, repro,
1996-11-06,-5.73, 1.50, 21.68, 2.33, 1.95, 9.65, repro,
1996-11-07,-5.43, -1.97, 5.17, 2.35, 1.97, 9.40, repro,
1996-11-08,-5.16, -0.48, 5.59, 2.26, 1.90, 9.22, repro,
1996-11-09,-4.14, -2.50, 10.87, 2.47, 2.12, 10.22, repro,
1996-11-10,-4.05, -0.69, 13.69, 2.48, 2.25, 10.42, repro,
1996-11-11,-3.62, -0.64, 7.79, 2.38, 2.08, 9.94, repro,
1996-11-12,-4.24, 0.14, -6.03, 2.13, 1.88, 8.88, repro,
1996-11-13,-4.36, 0.77, 5.64, 2.22, 1.91, 9.13, repro,
1996-11-14,-4.46, 0.30, 5.34, 2.15, 1.88, 8.75, repro,
1996-11-15,-7.35, 0.88, 7.28, 2.33, 1.93, 9.22, repro,
1996-11-16,-7.63, -0.38, 12.57, 2.28, 1.90, 9.26, repro,
1996-11-17,-3.00, -2.06, 6.53, 2.51, 2.23, 10.05, repro,
1996-11-18,-3.80, -1.07, 6.91, 2.53, 2.24, 10.01, repro,
1996-11-19,-7.08, -0.77, 0.90, 2.73, 2.43, 11.14, repro,
1996-11-20,-5.53, 0.16, 20.80, 2.21, 1.92, 9.03, repro,
1996-11-21,-5.95, -0.66, 20.63, 2.32, 2.02, 9.63, repro,
1996-11-22,-6.12, 0.65, 13.86, 2.53, 2.08, 10.11, repro,
1996-11-23,-5.66, -0.30, 9.36, 2.33, 2.04, 9.56, repro,
1996-11-24,-4.33, -2.77, 8.97, 2.28, 1.95, 9.19, repro,
1996-11-25,-2.23, 0.33, 11.14, 2.42, 2.07, 9.53, repro,
1996-11-26,-4.09, -3.00, -2.67, 2.31, 1.95, 9.11, repro,
1996-11-27,-3.27, 0.42, -6.59, 2.47, 2.15, 9.86, repro,
1996-11-28,-3.22, -0.37, 0.50, 2.35, 2.02, 9.65, repro,
1996-11-29,-4.12, -0.40, 6.80, 2.45, 2.04, 9.60, repro,
1996-11-30,-4.59, -1.34, 18.80, 2.62, 2.17, 10.15, repro,
1996-12-01,-5.56, -0.32, 11.94, 2.56, 2.08, 10.14, repro,
1996-12-02,-6.39, 1.27, 12.34, 2.74, 2.44, 10.70, repro,
1996-12-03,-4.49, 0.79, 3.05, 2.30, 2.08, 9.47, repro,
1996-12-04,-1.89, -0.38, 6.76, 2.53, 2.25, 10.05, repro,
1996-12-05,-4.12, 1.23, 12.52, 2.64, 2.31, 10.24, repro,
1996-12-06,-4.21, 0.45, 24.70, 2.67, 2.33, 10.44, repro,
1996-12-07,-2.43, 0.13, 3.90, 2.44, 2.07, 9.40, repro,
1996-12-08,-1.42, 1.04, 12.04, 2.55, 2.17, 9.65, repro,
1996-12-09,-2.88, 1.74, 6.33, 2.58, 2.24, 10.24, repro,
1996-12-10,-7.03, 0.20, 2.90, 2.71, 2.31, 10.59, repro,
1996-12-11,-4.26, 1.73, 9.67, 2.37, 2.09, 9.29, repro,
1996-12-12,-5.30, 0.68, 13.52, 2.32, 1.99, 8.84, repro,
1996-12-13,-5.51, 0.49, 7.33, 2.24, 1.95, 8.88, repro,
1996-12-14,-6.03, 0.05, 13.25, 2.26, 1.94, 8.92, repro,
1996-12-15,-4.69, -1.80, 2.28, 2.34, 2.04, 9.29, repro,
1996-12-16,-4.93, -1.72, 4.09, 2.13, 1.83, 8.36, repro,
1996-12-17,-4.16, -3.51, 3.79, 2.33, 1.99, 8.93, repro,
1996-12-18,-3.64, -2.52, -4.41, 2.14, 1.81, 8.32, repro,
1996-12-19,-2.73, -3.84, 4.75, 2.30, 1.97, 8.99, repro,
1996-12-20,-4.01, -2.71, 7.49, 2.28, 1.97, 8.90, repro,
1996-12-21,-4.95, 0.26, 12.35, 2.34, 2.04, 9.06, repro,
1996-12-22,-5.83, 1.85, 1.73, 2.25, 1.93, 8.48, repro,
1996-12-23,-4.66, -0.35, 2.69, 2.20, 1.87, 8.46, repro,
1996-12-24,-3.17, -3.88, -3.55, 2.24, 1.90, 8.65, repro,
1996-12-25,-3.66, -2.29, 5.79, 2.30, 1.98, 8.96, repro,
1996-12-26,-4.36, -1.55, 8.65, 2.27, 1.94, 8.90, repro,
1996-12-27,-4.94, -1.11, 15.36, 2.35, 2.00, 9.18, repro,
1996-12-28,-5.34, 1.26, 6.38, 2.34, 1.96, 8.83, repro,
1996-12-29,-4.73, 0.11, 6.09, 2.33, 2.01, 9.00, repro,
1996-12-30,-2.64, 0.91, 13.00, 2.40, 2.05, 9.45, repro,
1996-12-31,-4.72, -0.62, 12.27, 2.36, 2.00, 9.31, repro,
1997-01-01,-6.29, -0.06, 8.72, 2.25, 1.91, 8.95, repro,
1997-01-02,-8.13, 0.39, 17.10, 2.35, 2.08, 9.37, repro,
1997-01-03,-6.91, 1.41, 17.62, 2.34, 2.07, 9.32, repro,
1997-01-04,-6.59, 0.22, 6.03, 2.43, 2.16, 9.73, repro,
1997-01-05,-4.21, -1.56, 11.14, 2.35, 1.98, 9.27, repro,
1997-01-06,-3.66, -1.68, 2.64, 2.45, 2.09, 9.64, repro,
1997-01-07,-4.70, -1.32, 2.83, 2.42, 2.10, 9.42, repro,
1997-01-08,-6.26, -3.96, 11.02, 2.28, 1.94, 9.06, repro,
1997-01-09,-6.19, -2.92, 16.97, 2.39, 2.00, 9.20, repro,
1997-01-10,-3.05, -2.21, 6.60, 2.20, 1.90, 8.74, repro,
1997-01-11,-2.79, -3.67, 2.17, 2.32, 1.98, 9.21, repro,
1997-01-12,-3.94, -2.65, -2.12, 2.42, 2.07, 9.42, repro,
1997-01-13,-4.31, -2.46, 0.45, 2.40, 2.09, 9.49, repro,
1997-01-14,-3.38, -2.20, -0.12, 2.52, 2.14, 9.99, repro,
1997-01-15,-6.32, -1.91, 5.01, 2.62, 2.11, 10.01, repro,
1997-01-16,-3.08, -2.23, -6.23, 2.34, 2.07, 9.39, repro,
1997-01-17,-5.04, -2.17, -1.32, 2.85, 2.47, 11.05, repro,
1997-01-18,-4.64, -2.32, 0.89, 2.57, 2.25, 10.25, repro,
1997-01-19,-6.76, 1.15, -1.08, 2.39, 1.99, 9.52, repro,
1997-01-20,-5.16, 1.53, -1.20, 2.22, 1.97, 8.91, repro,
1997-01-21,-6.25, 2.02, -1.34, 2.60, 2.22, 10.46, repro,
1997-01-22,-6.94, -2.26, 6.62, 2.73, 2.28, 10.39, repro,
1997-01-23,-4.70, -0.87, 3.54, 2.31, 1.96, 9.08, repro,
1997-01-24,-4.86, -1.77, 3.75, 2.79, 2.41, 10.84, repro,
1997-01-25,-3.43, -1.50, 6.88, 2.79, 2.44, 10.98, repro,
1997-01-26,-5.57, -0.78, 3.25, 2.51, 2.14, 9.65, repro,
1997-01-27,-4.73, -0.44, 10.48, 2.85, 2.39, 11.40, repro,
1997-01-28,-4.17, -2.44, -3.27, 2.24, 1.87, 9.03, repro,
1997-01-29,-4.99, -1.67, -1.32, 2.23, 1.96, 9.17, repro,
1997-01-30,-4.32, -0.05, 2.32, 2.19, 1.88, 8.74, repro,
1997-01-31,-4.69, -0.47, 10.25, 2.18, 1.85, 8.62, repro,
1997-02-01,-5.88, -0.52, 9.24, 2.20, 1.88, 8.64, repro,
1997-02-24,-4.03, -0.29, -8.13, 2.26, 1.99, 8.96, repro,
1997-02-25,-4.53, -0.13, 5.30, 2.21, 1.88, 9.10, repro,
1997-02-26,-4.36, -1.00, 8.07, 2.40, 2.07, 9.58, repro,
1997-02-27,-4.80, 0.08, 11.14, 2.61, 2.19, 10.31, repro,
1997-02-28,-4.31, -1.27, 5.94, 2.39, 2.05, 9.47, repro,
1997-03-02,-6.44, 0.27, 10.65, 2.35, 1.94, 9.27, repro,
1997-03-03,-5.62, -1.76, 13.00, 2.25, 2.00, 8.96, repro,
1997-03-04,-5.70, -0.39, -2.07, 2.46, 2.11, 10.09, repro,
1997-03-05,-3.45, -2.45, -1.59, 2.36, 2.05, 9.95, repro,
1997-03-06,-4.13, -0.85, -9.19, 2.30, 2.02, 9.23, repro,
1997-03-07,-5.52, 2.13, 4.80, 2.29, 1.97, 9.47, repro,
1997-03-08,-6.01, -2.32, 5.74, 2.44, 2.07, 10.00, repro,
1997-03-09,-6.61, 2.24, -0.98, 2.54, 2.14, 10.21, repro,
1997-03-10,-5.14, 0.95, 7.46, 2.34, 2.03, 9.57, repro,
1997-03-11,-5.57, -0.01, 6.01, 2.45, 2.07, 9.98, repro,
1997-03-12,-6.54, 0.99, -3.20, 2.26, 1.95, 9.25, repro,
1997-03-13,-7.42, 0.01, 6.07, 2.43, 2.20, 9.84, repro,
1997-03-14,-5.84, -2.32, 3.45, 2.34, 2.00, 9.52, repro,
1997-03-15,-5.12, -1.34, -0.56, 2.43, 2.10, 9.74, repro,
1997-03-16,-4.91, -1.73, -1.10, 2.15, 1.81, 8.57, repro,
1997-03-17,-7.78, -1.80, 0.70, 2.17, 1.85, 8.65, repro,
1997-03-18,-6.66, -0.45, 9.37, 2.13, 1.80, 8.58, repro,
1997-03-19,-3.75, -1.88, -0.76, 2.12, 1.80, 8.54, repro,
1997-03-20,-6.63, -0.41, 3.61, 2.10, 1.78, 8.45, repro,
1997-03-21,-6.16, 0.28, 5.69, 2.17, 1.83, 8.75, repro,
1997-03-22,-5.43, -0.12, 4.37, 2.12, 1.77, 8.48, repro,
1997-03-23,-6.13, 0.06, 9.64, 2.12, 1.80, 8.56, repro,
1997-03-25,-6.87, 0.43, 19.21, 2.40, 2.18, 9.55, repro,
1997-03-26,-5.91, -0.92, 6.64, 2.20, 1.88, 8.91, repro,
1997-03-27,-7.03, -0.93, 1.96, 2.20, 1.86, 8.88, repro,
1997-03-28,-6.63, 0.75, 16.00, 2.09, 1.79, 8.42, repro,
1997-03-29,-6.32, -2.48, 12.30, 2.11, 1.79, 8.47, repro,
1997-03-30,-7.50, -1.40, 4.89, 2.31, 1.93, 9.17, repro,
1997-03-31,-4.43, 1.17, 5.79, 2.21, 1.92, 8.87, repro,
1997-04-01,-5.28, -0.07, 0.51, 2.17, 1.82, 8.70, repro,
1997-04-02,-5.75, 0.49, 8.68, 2.21, 1.81, 8.72, repro,
1997-04-03,-6.14, 0.12, 10.22, 2.11, 1.76, 8.48, repro,
1997-04-04,-8.07, -0.18, 6.13, 2.16, 1.80, 8.70, repro,
1997-04-05,-6.93, 0.18, 14.41, 2.22, 1.86, 9.18, repro,
1997-04-06,-4.97, -1.19, 0.95, 2.17, 1.83, 8.69, repro,
1997-04-07,-5.02, -1.15, 5.91, 2.27, 1.84, 9.46, repro,
1997-04-08,-4.46, -1.71, 19.23, 2.20, 1.83, 9.10, repro,
1997-04-09,-4.17, -0.78, 5.13, 2.35, 1.95, 9.48, repro,
1997-04-10,-6.21, 1.42, 1.53, 2.19, 1.83, 9.06, repro,
1997-04-11,-4.64, -0.93, 7.35, 2.22, 1.86, 8.88, repro,
1997-04-12,-3.60, -1.32, 1.78, 2.20, 1.80, 9.02, repro,
1997-04-13,-5.76, -1.40, 5.01, 2.23, 1.91, 9.18, repro,
1997-04-14,-5.51, -0.54, 1.02, 2.23, 1.90, 9.17, repro,
1997-04-15,-5.08, 0.23, 0.06, 2.25, 1.91, 9.26, repro,